Theta_e
347 346 349 353 354 357 358 358 357 358 361 362 365 364 366 364 365 363 366 366 366 362 367 356 353 355 358 357 354 357 359 357 358 360 360 363 362 364 361 358 357 358 358 356 358 362 362 363 361 359 359 356 354 350 350 350 351 351 350 350 347 345 345 348 347 346 343 341 342 342 342 346 346 347 348 350 351 352 355 356 355 353 352 350 352
344 349 352 350 354 353 353 354 357 355 359 360 363 364 367 363 364 365 374 373 372 368 370 358 356 354 356 360 360 356 360 357 355 358 361 362 363 362 362 360 360 361 361 361 361 360 360 360 360 360 360 357 355 354 353 352 351 350 349 347 349 345 343 345 346 345 341 338 336 336 339 342 344 345 345 347 349 351 354 355 356 357 355 352 349
345 352 356 354 351 352 351 351 353 355 356 359 366 366 366 364 367 373 370 368 370 362 361 357 356 356 357 361 361 359 359 360 357 359 364 362 363 367 368 365 362 360 360 360 357 357 359 359 358 361 359 358 356 354 354 352 352 349 349 346 344 346 345 346 346 346 338 339 340 336 331 331 338 343 344 344 347 353 354 352 354 354 357 359 357
345 347 349 349 349 347 349 352 355 357 357 357 362 364 364 367 367 369 369 373 371 370 364 364 360 360 360 363 361 360 359 360 360 358 357 358 360 364 365 363 364 360 359 360 360 360 360 360 360 360 360 359 358 356 355 352 352 351 349 347 346 341 341 341 346 346 344 340 331 333 333 331 326 330 333 345 351 354 355 353 353 353 355 354 352
341 338 346 345 345 347 352 353 354 354 354 356 357 359 362 365 367 365 369 371 369 368 370 370 368 367 367 366 360 360 357 365 356 355 349 348 344 352 355 356 356 359 358 354 353 355 357 358 356 355 356 358 356 356 352 350 349 347 347 347 346 343 340 341 344 346 345 349 341 333 331 329 328 331 331 337 349 351 351 350 349 349 351 351 350
345 345 344 340 345 350 353 355 352 353 355 357 357 360 364 366 365 369 368 368 366 367 369 373 369 361 364 368 364 357 361 360 358 357 355 353 344 344 348 347 349 354 354 352 350 353 353 355 355 356 355 355 358 354 352 352 352 349 351 351 345 346 343 342 343 348 349 347 347 345 340 332 331 333 331 325 339 342 352 350 350 350 352 349 348
344 343 343 341 349 349 351 354 351 352 355 356 359 361 365 366 366 367 368 368 367 366 363 370 367 362 357 353 354 356 357 357 356 358 357 356 350 347 354 355 357 354 349 355 355 354 354 356 355 355 355 358 358 358 355 353 351 352 351 349 348 349 347 343 343 343 347 348 348 347 345 345 343 337 330 332 328 334 341 344 350 348 350 350 348
338 340 341 344 347 348 349 354 351 350 353 356 355 360 364 366 366 367 368 368 365 362 366 360 360 364 355 350 350 350 346 349 354 357 352 354 359 352 352 352 354 357 354 355 355 353 354 355 355 355 359 356 359 359 356 359 355 351 350 347 348 344 347 345 344 343 340 341 346 347 347 348 349 344 341 335 333 330 332 339 339 342 350 348 346
338 338 339 345 346 348 351 353 352 351 351 354 358 360 364 365 367 366 365 364 363 362 364 361 360 364 354 353 358 354 346 355 348 347 352 350 346 349 351 357 354 355 355 353 355 355 354 354 353 353 352 353 365 360 356 353 351 349 351 347 349 349 348 346 344 344 344 341 345 344 346 346 345 343 342 343 335 331 330 332 335 340 344 344 347
337 339 340 343 347 348 350 351 351 349 353 357 359 359 362 364 364 364 362 363 361 361 365 357 353 364 356 356 347 354 349 359 351 356 356 357 346 350 358 356 354 353 354 357 356 353 353 352 350 348 348 345 351 348 349 352 355 355 352 353 351 349 350 348 344 345 347 345 343 343 339 340 341 339 339 340 338 335 329 330 333 333 333 338 345
336 337 340 344 346 347 348 348 350 352 354 356 355 358 358 361 362 360 360 362 359 357 356 355 357 355 354 347 347 340 345 342 354 356 357 353 348 354 349 351 351 351 352 351 352 352 355 354 347 346 348 349 350 349 347 346 343 347 350 351 352 349 350 349 348 348 347 344 343 343 341 340 337 335 335 336 334 331 332 331 331 331 331 332 338
336 337 338 344 345 346 346 346 347 352 353 353 352 358 358 359 359 358 358 358 358 357 356 355 354 355 347 349 347 349 345 342 352 345 350 346 346 348 354 351 350 350 352 352 349 343 352 352 351 349 350 350 349 347 347 347 345 346 348 349 349 351 352 348 347 347 344 344 343 342 344 343 341 341 341 337 334 335 333 330 329 332 333 334 339
336 339 341 342 343 344 344 347 348 353 352 352 353 352 356 358 357 355 355 356 356 356 355 354 354 353 352 350 347 348 346 348 350 348 348 352 349 345 346 345 348 347 349 348 348 348 351 348 349 351 349 349 350 350 349 349 350 349 349 346 346 346 354 350 349 344 344 342 340 342 343 340 340 343 340 338 339 337 335 330 331 333 330 331 336
335 337 340 342 346 345 347 348 350 353 353 353 354 352 355 354 356 354 354 355 356 356 355 353 354 353 351 355 355 353 354 346 353 351 347 352 354 349 345 344 344 343 345 350 348 348 351 350 348 349 351 350 349 350 349 349 349 348 348 347 344 348 348 347 348 345 348 345 345 344 342 340 341 341 340 340 335 330 328 326 327 330 331 330 333
337 339 340 344 347 348 349 351 354 353 353 352 352 354 353 353 353 353 352 353 355 354 355 353 354 352 352 354 360 351 355 357 354 351 353 350 351 339 345 346 348 345 348 348 350 351 349 350 349 348 349 349 349 349 347 348 349 348 349 347 347 349 348 348 348 343 340 341 342 345 344 343 341 343 342 337 335 331 331 330 328 323 326 329 329
336 337 340 345 348 358 356 351 354 349 353 351 353 353 351 352 353 353 352 353 353 353 353 353 353 353 351 349 349 349 351 354 354 350 352 346 347 349 343 344 346 348 348 350 348 349 351 348 348 346 347 345 346 348 348 346 348 347 349 348 346 347 346 347 348 345 338 339 339 342 342 340 340 343 342 341 338 337 336 334 331 327 323 320 326
335 338 339 345 347 349 355 352 346 346 349 351 354 353 353 353 351 353 353 354 353 353 353 351 353 351 351 348 349 348 346 344 344 345 342 347 348 344 348 347 346 346 344 345 348 353 351 349 346 346 346 347 345 346 347 347 348 347 344 347 346 346 349 346 344 341 340 336 340 337 339 341 341 339 338 341 344 341 337 336 335 330 328 322 321
340 341 342 345 348 352 350 349 346 347 350 351 353 353 354 352 351 353 353 351 352 352 351 351 352 351 351 350 350 349 346 344 347 342 346 347 349 344 346 349 345 347 345 344 345 345 348 346 346 346 346 344 344 344 345 346 347 347 345 346 346 347 347 346 344 343 341 341 339 337 337 336 335 333 332 334 338 338 338 338 336 334 332 326 324
342 339 340 340 345 346 349 347 346 349 350 354 354 353 353 351 352 352 351 351 352 349 352 354 354 350 350 351 350 347 348 347 347 348 349 344 343 343 343 345 344 348 348 350 348 345 345 345 346 343 342 343 345 344 346 346 346 346 346 348 348 347 345 345 347 343 342 342 340 338 339 335 334 333 334 334 334 334 335 335 334 335 333 330 327
338 337 339 338 343 345 346 346 346 347 348 353 351 348 346 348 352 352 352 352 352 352 354 354 352 352 350 353 351 351 352 349 348 348 345 342 343 343 347 339 347 347 348 348 348 344 343 341 338 338 339 340 341 343 344 344 347 347 348 347 346 346 343 342 343 344 341 339 339 337 335 334 335 334 333 333 333 334 334 334 333 332 332 332 331
338 344 343 342 338 346 349 350 347 351 350 349 348 346 345 345 346 347 350 348 348 350 352 353 354 353 353 349 349 349 346 347 345 346 345 346 346 347 345 345 346 345 346 344 344 344 344 342 341 342 340 341 342 342 343 344 344 345 346 347 344 344 344 343 344 344 340 341 341 336 334 334 335 332 331 331 331 331 331 331 331 330 329 330 330
340 345 342 336 340 346 344 346 350 348 345 343 347 345 343 343 344 344 345 344 343 348 352 351 353 353 349 349 349 347 347 349 345 347 345 345 346 348 346 346 342 343 345 341 343 341 342 343 341 341 342 342 342 343 340 340 340 341 344 341 340 342 341 341 342 341 342 338 339 336 334 333 333 331 330 329 328 329 328 327 327 326 327 328 330
335 336 341 342 344 342 345 349 350 347 345 345 346 342 339 341 344 343 344 343 343 344 349 353 350 349 349 349 349 348 347 347 345 344 338 338 338 342 341 340 341 341 344 345 344 344 345 343 341 341 343 342 344 343 342 340 340 341 341 340 340 339 343 340 337 339 340 340 337 335 332 332 331 330 329 328 327 327 327 326 325 326 326 325 327
343 339 335 347 351 351 349 350 350 347 347 345 343 343 342 342 343 341 342 341 342 344 345 351 351 348 348 348 347 348 344 339 337 340 337 336 336 337 342 343 344 342 342 346 345 341 339 340 340 339 339 341 343 346 343 341 341 341 341 339 339 340 341 340 338 338 338 338 334 333 331 331 331 329 328 327 327 327 326 325 325 325 325 325 326
347 347 352 343 345 347 346 348 348 348 347 347 345 344 342 344 342 339 340 341 343 348 348 350 348 345 344 346 343 342 341 342 339 335 335 334 333 333 339 337 338 338 342 338 341 346 345 340 338 339 341 340 343 345 343 341 341 343 341 339 340 338 336 338 340 338 335 336 334 331 331 332 331 328 327 326 326 326 326 326 325 325 325 325 325
352 352 347 341 344 343 346 347 346 345 345 349 347 344 344 345 343 340 337 341 344 338 339 345 346 345 347 343 343 341 340 340 340 338 336 338 338 340 335 332 335 335 342 338 339 337 336 338 340 340 339 340 341 347 344 344 345 339 338 339 342 343 340 338 338 338 337 335 334 332 331 332 330 328 327 327 326 325 326 326 325 324 325 324 323
349 359 352 354 350 348 346 350 348 346 349 348 346 344 342 344 342 338 342 348 347 344 343 341 343 343 345 343 342 343 343 339 343 342 342 339 335 333 333 336 332 331 332 333 334 334 338 340 339 339 340 341 340 339 343 346 345 343 342 343 340 337 338 339 338 336 335 333 332 332 332 332 331 330 328 326 325 326 327 327 327 325 325 324 322
345 351 355 353 352 345 345 346 351 348 348 348 346 344 343 340 337 336 341 343 346 346 346 346 346 345 348 343 342 344 343 345 345 350 347 344 342 344 345 344 342 339 334 334 332 336 337 336 337 339 340 339 338 338 346 346 340 338 338 335 334 333 333 336 338 338 336 333 332 332 330 330 331 331 329 328 327 326 327 327 327 326 325 323 321
338 344 354 340 347 348 346 346 348 348 347 346 345 343 342 339 335 335 338 343 349 351 350 346 346 347 348 346 347 345 346 347 345 347 344 344 345 345 344 343 343 341 339 336 336 337 339 338 337 337 337 339 338 340 340 338 338 337 340 336 334 331 332 336 336 335 333 332 332 332 331 331 332 333 327 325 325 324 326 326 326 326 325 323 322
336 344 346 347 349 344 345 347 348 348 347 345 342 341 339 335 335 340 339 344 351 350 350 350 346 347 351 347 349 348 347 347 346 344 345 345 343 344 342 342 342 341 343 343 343 344 336 333 334 337 340 339 338 336 337 334 332 338 339 338 335 334 335 335 335 334 332 331 331 330 332 334 329 326 325 323 321 320 319 325 327 326 325 323 322
340 346 346 353 345 342 344 346 348 347 347 344 343 341 342 336 338 339 340 342 348 349 351 349 343 345 349 348 347 347 346 346 347 345 346 344 344 344 344 344 344 344 344 345 340 336 332 335 334 332 332 336 333 333 329 327 328 330 337 339 337 335 334 332 330 329 329 330 331 331 331 334 334 332 332 326 323 321 322 321 320 320 320 323 321
344 340 340 340 345 345 347 348 349 347 347 346 348 344 346 339 338 339 341 346 346 347 346 347 345 348 350 347 346 347 346 346 346 347 346 346 345 345 345 345 345 343 345 343 339 339 340 341 336 333 335 334 336 331 322 324 327 327 331 337 337 333 331 330 330 329 329 329 330 331 330 329 327 329 326 328 328 328 323 321 320 319 319 319 318
344 352 346 342 344 346 351 349 348 346 346 345 347 344 342 343 342 342 342 343 343 346 344 346 347 349 347 347 347 346 346 346 346 346 347 346 345 343 343 344 342 346 344 340 340 337 336 338 338 341 337 338 336 329 322 322 324 324 327 332 336 336 333 333 333 332 331 331 332 332 325 326 327 328 328 327 329 330 328 322 319 319 320 320 320
332 336 343 350 345 341 347 350 350 348 345 343 343 345 344 343 342 343 343 342 343 342 342 343 345 348 347 346 346 345 345 345 347 346 346 346 345 345 345 342 343 346 341 337 337 338 339 339 340 343 344 341 338 329 320 319 320 321 324 328 336 335 335 335 335 333 331 333 336 330 327 327 327 330 330 328 329 330 331 330 329 327 326 323 318
338 344 339 350 352 350 349 351 350 348 345 342 340 341 344 340 337 339 343 339 342 342 344 346 346 346 347 347 346 346 344 346 346 345 345 344 345 345 345 343 340 339 338 339 338 339 343 338 339 340 340 337 330 325 319 318 317 317 319 324 332 334 335 336 336 335 335 335 332 332 331 330 333 334 331 329 332 331 329 328 327 326 325 323 323
335 340 350 351 352 351 346 347 348 348 345 343 343 340 336 333 338 339 338 344 343 343 345 344 345 345 346 346 345 345 344 344 345 345 343 343 347 346 344 348 345 341 337 336 337 337 334 334 339 340 337 336 333 319 319 317 316 316 319 328 332 333 334 334 333 334 334 337 336 333 329 327 330 331 325 323 326 328 328 326 324 324 323 322 322
347 339 344 361 358 354 349 352 350 346 344 343 340 335 335 334 332 335 343 340 342 342 341 341 343 344 344 345 343 343 343 342 343 343 342 340 340 340 341 341 339 334 332 334 336 335 335 335 339 338 339 338 338 328 316 316 316 316 319 330 333 333 333 333 334 333 333 334 335 333 328 329 334 332 325 318 320 319 326 324 322 322 321 321 320
335 358 352 362 367 362 359 353 351 347 340 339 337 335 336 336 334 337 334 335 338 338 341 343 341 342 344 344 342 342 341 342 342 341 341 343 341 341 342 346 339 333 332 332 333 338 335 344 337 332 332 333 331 327 315 314 316 317 321 329 333 334 333 334 332 332 335 333 333 338 333 330 329 329 321 317 316 320 323 322 321 320 319 319 319
335 338 336 342 356 364 359 359 348 337 339 338 337 337 336 337 336 331 331 334 338 340 340 341 342 343 344 343 343 343 342 342 342 342 340 336 339 343 346 337 334 335 335 337 334 331 336 332 327 326 332 332 329 326 312 317 317 315 322 332 335 335 332 332 333 333 332 329 330 331 331 328 327 328 314 314 312 315 321 319 320 319 318 318 318
347 341 341 353 370 365 347 342 339 341 343 342 339 335 334 336 332 333 331 335 337 339 341 343 342 343 344 344 344 346 344 341 341 340 341 347 345 347 335 336 336 332 331 331 332 331 333 329 328 328 327 327 328 329 334 318 314 314 315 328 335 333 330 330 331 331 330 330 334 331 334 321 315 312 312 310 308 307 316 320 319 318 318 317 320
328 335 351 349 361 353 344 343 342 342 339 338 335 334 336 338 339 337 335 338 340 341 345 346 346 342 343 344 346 347 343 341 343 348 348 346 345 345 351 348 338 334 337 336 334 336 332 333 331 333 331 329 329 327 325 319 314 314 314 317 332 333 332 332 332 330 330 328 328 329 329 317 311 311 309 304 303 304 306 316 319 319 320 318 312
345 350 357 353 345 351 346 343 344 341 338 338 339 342 340 339 339 337 343 349 349 348 347 346 346 344 346 350 353 357 350 345 347 345 345 344 350 347 344 344 341 338 336 336 335 337 334 331 330 328 328 327 328 328 326 323 316 315 313 312 325 327 330 327 327 328 328 328 329 333 329 319 309 307 304 302 301 303 306 316 321 310 308 311 317
342 344 342 339 336 344 341 341 339 337 338 345 341 345 343 347 340 342 346 346 347 347 346 346 347 350 353 349 344 341 346 342 341 346 348 351 348 346 344 340 337 338 335 333 336 334 330 328 327 328 328 329 326 325 324 326 320 314 312 310 311 317 318 327 326 326 327 329 331 332 330 321 308 303 300 300 301 303 306 318 307 306 309 311 315
327 335 340 336 342 344 342 339 337 338 347 353 335 341 346 353 347 346 348 347 347 352 353 354 353 351 350 351 345 344 343 348 346 346 354 351 347 345 345 343 340 335 336 334 338 329 328 326 325 330 329 327 326 327 326 324 326 319 311 306 306 306 308 321 325 323 325 326 329 330 325 307 302 301 301 302 303 304 316 306 306 309 311 314 321
334 323 337 338 338 339 338 343 350 342 341 342 346 350 351 344 341 339 337 343 340 339 349 346 346 349 357 347 346 348 347 345 340 344 346 345 341 339 333 335 338 336 337 336 333 329 328 325 328 327 328 327 329 331 331 330 323 321 315 311 311 311 310 307 317 323 328 329 317 308 305 304 308 306 305 305 311 315 310 308 308 310 315 318 318
333 343 346 338 335 340 336 338 342 341 339 340 344 346 344 347 345 345 343 341 347 343 342 339 347 351 345 340 336 336 342 338 341 342 343 340 332 330 331 336 335 336 337 333 333 334 333 332 330 328 329 327 329 330 332 328 323 321 318 314 313 313 314 315 316 321 317 313 311 309 309 315 316 318 325 326 323 319 312 311 312 314 317 315 315
331 334 335 336 335 335 337 336 335 337 338 341 346 344 351 347 343 343 342 346 349 345 350 347 347 346 345 345 345 334 334 340 338 337 333 332 332 340 333 333 339 333 333 335 328 327 328 325 329 329 327 328 326 327 325 319 319 317 316 317 318 318 317 317 321 325 321 321 322 323 324 315 315 314 315 319 321 318 317 315 315 316 315 313 314
340 338 336 333 333 336 334 332 337 338 338 338 337 340 343 344 337 336 338 343 345 345 341 341 339 343 347 346 338 331 335 334 330 331 331 334 335 327 330 331 327 328 327 327 326 327 326 325 326 326 326 327 325 321 313 313 315 312 311 312 313 314 313 314 316 318 317 316 319 320 325 326 327 324 321 319 319 318 318 316 314 314 313 314 315
343 339 334 332 333 336 337 336 333 336 339 337 336 332 331 337 338 335 345 341 340 341 342 337 336 340 336 337 336 337 336 331 334 329 321 316 317 325 330 322 317 316 319 319 322 320 322 320 319 325 323 322 321 315 309 303 309 302 305 305 309 309 308 309 310 306 309 314 321 324 319 316 315 314 314 313 313 314 315 315 314 312 312 312 312
341 341 339 340 343 339 339 336 340 342 336 338 338 333 325 323 331 333 337 338 343 336 331 328 332 330 328 329 329 325 332 337 326 324 320 316 309 298 307 322 315 307 302 302 306 314 314 319 320 316 316 315 313 310 298 294 294 294 293 294 295 294 295 299 300 301 305 311 319 316 315 313 314 312 311 311 310 310 311 312 312 312 313 312 311
339 338 340 341 343 342 340 341 340 337 334 335 333 329 336 329 338 339 334 338 335 343 336 327 330 326 334 329 326 327 331 342 334 332 323 320 317 311 297 297 302 303 299 295 294 296 299 304 316 312 306 303 302 297 294 294 293 293 293 293 293 293 294 294 297 308 319 317 315 313 313 312 312 311 310 309 310 309 309 309 310 312 313 312 311
Wind_Speed
13 12 11 11 11 7 7 7 7 9 7 8 8 7 8 7 9 8 6 6 5 5 4 6 2 2 2 3 5 2 3 4 4 3 4 3 3 1 3 3 4 4 4 4 4 5 4 4 3 5 6 6 5 6 7 7 6 5 5 4 5 5 5 5 6 6 5 6 7 10 10 9 11 11 11 9 10 9 8 8 8 9 9 9 8
13 11 9 11 11 10 9 7 8 10 7 8 7 7 7 8 7 4 4 4 3 8 5 8 2 4 3 3 3 5 6 5 5 6 5 5 6 4 4 4 4 3 3 3 4 5 4 4 5 5 4 5 6 6 6 6 5 5 5 5 4 6 6 5 5 4 4 5 6 7 7 7 9 10 11 11 11 9 8 7 6 7 9 7 8
16 13 14 11 12 13 10 9 9 9 10 9 7 6 7 8 5 6 3 6 3 7 5 5 2 4 5 5 5 5 4 5 5 6 7 5 6 5 5 4 3 4 5 4 3 3 4 4 5 4 5 5 5 5 5 4 4 6 6 6 6 5 6 5 6 5 6 5 5 6 7 7 4 6 8 10 11 7 4 3 5 6 6 6 5
15 14 15 15 15 14 10 9 9 10 7 8 10 9 8 5 5 7 5 5 5 7 6 8 10 8 5 4 6 6 7 8 10 8 9 9 7 6 6 2 2 3 3 4 4 4 5 4 4 4 5 4 5 5 4 5 5 5 6 6 5 7 6 5 4 5 5 4 5 3 5 6 8 5 8 5 5 5 6 8 6 6 5 4 4
15 14 15 14 11 13 11 9 10 10 8 9 8 8 6 6 6 8 7 6 5 5 7 8 7 8 8 4 1 3 2 1 3 4 4 4 2 1 5 2 2 2 3 6 5 4 4 4 5 6 5 5 4 3 3 5 6 7 7 5 5 6 6 5 5 5 5 3 5 5 5 5 5 5 8 6 3 3 6 6 7 8 8 7 4
14 15 15 16 15 13 12 12 11 10 9 9 8 8 7 7 7 5 7 7 6 4 3 3 3 3 3 1 2 2 1 2 2 2 3 4 4 6 5 4 4 3 3 4 4 5 5 5 5 5 6 6 4 4 4 5 6 6 4 3 6 6 5 4 5 4 5 5 6 7 6 6 5 5 7 6 5 6 3 8 9 9 8 8 7
16 16 14 15 15 12 13 12 11 11 9 9 8 8 7 8 8 5 6 4 4 4 4 2 2 3 2 1 3 2 1 3 2 1 3 3 4 5 3 2 2 1 4 3 2 3 4 4 5 5 5 5 4 3 4 6 5 3 4 3 6 4 4 5 5 5 4 4 6 8 9 7 4 4 5 6 9 5 6 4 3 4 1 4 4
13 14 15 14 15 14 14 12 10 12 10 10 9 8 9 8 7 6 5 4 5 4 3 5 3 3 3 3 4 3 3 3 2 2 3 2 1 2 3 4 3 2 2 3 3 3 3 4 4 4 4 5 4 3 4 2 2 3 3 4 2 4 6 4 4 5 5 5 4 4 3 3 1 2 6 7 9 9 9 7 9 7 5 7 6
14 13 15 16 14 15 13 12 11 12 10 10 7 8 8 7 7 6 6 6 4 4 4 4 4 3 3 3 3 2 4 1 2 3 3 3 1 3 3 2 2 2 2 3 2 2 3 3 4 5 5 4 1 3 3 1 2 6 3 4 4 5 4 4 4 6 5 6 4 2 2 2 2 3 4 3 4 7 9 8 7 5 4 6 7
15 14 13 13 14 15 14 13 12 11 9 10 8 9 7 7 6 7 7 5 5 5 4 4 3 2 4 3 2 4 5 2 1 1 3 3 2 3 0 1 1 2 2 2 2 3 3 3 4 6 5 6 5 5 4 3 3 2 3 5 4 4 4 4 5 5 4 6 5 3 3 5 4 3 3 3 3 4 7 7 8 9 9 7 5
14 14 14 13 14 14 14 14 11 9 10 10 9 9 8 8 8 8 7 5 5 5 4 4 3 4 2 2 3 1 3 1 1 2 3 4 3 0 2 1 2 2 4 3 2 3 2 2 4 5 5 5 5 5 5 5 5 4 2 2 4 5 4 3 4 3 3 4 4 4 5 5 5 4 5 3 4 5 6 7 6 6 10 13 9
15 14 15 14 14 13 14 15 13 10 11 11 10 9 9 8 9 8 7 7 5 5 5 4 5 2 2 3 2 4 1 1 0 2 0 1 1 2 1 2 3 2 3 3 3 3 2 2 3 4 4 4 5 5 5 5 5 4 4 4 4 3 2 2 3 2 2 2 4 4 5 4 6 4 5 5 4 5 4 7 7 7 9 9 9
16 13 13 14 14 15 14 12 13 11 11 13 10 12 9 10 10 10 8 8 6 6 5 6 3 4 4 3 3 4 1 3 1 1 2 1 2 2 2 2 2 2 3 2 3 3 3 2 2 3 3 3 3 3 4 4 3 4 4 5 5 4 1 1 1 3 2 3 4 5 6 5 6 5 6 6 5 5 4 7 6 5 9 11 9
15 14 15 14 13 14 13 13 12 11 13 12 11 10 10 11 10 10 9 8 7 6 6 5 4 6 5 3 3 3 1 3 1 1 2 3 2 2 1 3 2 3 2 3 3 3 2 2 3 3 2 3 3 3 4 4 3 3 3 4 5 4 3 3 2 2 2 4 4 4 4 4 6 8 7 6 5 6 8 9 11 9 8 11 9
15 14 15 15 14 14 12 11 9 11 11 11 10 11 12 11 10 10 10 8 8 7 5 6 6 5 4 4 3 4 3 1 3 3 2 1 2 2 2 2 2 3 3 2 3 2 3 2 3 3 3 3 3 3 4 3 3 3 3 4 4 3 3 3 3 3 4 4 3 2 4 4 5 5 5 4 2 4 6 6 6 11 12 10 10
16 16 16 17 17 12 10 9 8 7 5 9 9 12 12 12 11 11 11 10 9 7 6 6 7 6 5 5 5 4 4 2 3 3 2 4 2 1 2 2 3 3 3 2 3 3 2 2 3 3 3 4 4 4 4 4 3 4 3 3 4 2 2 2 1 2 4 5 4 3 3 5 6 5 5 6 6 5 5 5 5 6 10 14 11
14 16 15 16 15 13 10 10 11 13 12 10 10 12 12 12 12 12 11 10 8 8 6 6 6 5 6 6 4 4 6 6 5 6 4 2 2 3 3 2 2 2 4 4 3 2 2 2 3 3 3 3 5 4 4 4 3 4 4 3 3 2 2 2 3 4 4 5 4 7 5 3 4 6 6 5 4 4 5 6 4 6 7 10 12
12 14 14 15 15 14 12 12 15 15 15 9 13 13 11 12 12 12 12 11 9 8 7 6 6 6 6 6 6 5 4 4 2 2 3 2 3 5 4 4 3 2 2 3 3 3 3 4 3 4 3 4 5 6 5 4 4 4 3 3 3 2 2 2 3 4 4 4 5 4 5 6 5 6 7 7 6 7 7 6 6 7 7 9 9
6 12 13 13 14 16 15 15 17 15 15 8 13 12 11 10 10 12 11 11 10 8 7 6 5 5 4 5 6 5 4 3 3 3 3 3 2 2 3 3 2 2 3 2 3 3 3 4 3 4 5 5 4 5 5 4 4 4 3 2 1 1 3 3 3 2 2 2 1 3 4 5 5 6 7 8 8 8 7 8 8 7 8 9 11
10 10 14 16 14 17 19 21 21 17 16 11 15 15 16 12 11 10 10 9 9 8 7 6 5 4 5 4 4 3 3 4 3 3 3 4 5 2 2 4 3 2 2 2 2 3 4 4 5 6 5 5 5 4 4 4 3 3 2 2 3 3 3 3 3 2 2 1 2 3 3 4 4 5 7 7 8 9 9 9 8 9 9 8 9
12 9 11 11 12 11 8 11 15 14 13 13 16 16 15 13 13 13 11 11 10 8 7 6 5 4 4 5 4 4 4 3 4 4 4 3 3 3 2 3 3 4 3 3 4 4 5 5 5 5 6 6 5 6 5 4 4 4 3 4 4 3 2 3 2 1 2 2 1 3 4 4 4 6 6 7 7 8 9 8 8 9 10 9 10
15 13 16 16 12 13 13 14 11 13 15 17 15 13 14 13 14 14 14 13 13 9 7 7 4 6 5 5 4 5 4 4 4 4 4 4 3 3 4 4 4 5 4 4 5 5 4 5 5 5 6 6 6 6 7 6 6 4 3 3 5 3 4 3 3 2 1 1 1 2 3 4 4 5 6 7 7 7 7 9 9 8 9 10 9
9 12 16 15 17 15 15 18 16 14 12 9 11 14 13 15 15 14 14 15 14 12 9 7 6 5 5 5 5 5 4 4 4 4 6 6 6 8 9 8 6 3 4 5 4 3 3 5 6 6 6 6 5 6 4 5 7 5 4 4 5 4 2 4 5 2 2 1 1 2 3 3 3 4 5 5 6 7 6 7 9 8 9 10 11
5 7 8 13 13 15 11 10 12 12 12 15 14 13 14 15 16 15 17 15 13 12 11 9 7 6 6 6 6 4 5 6 7 5 6 5 5 5 3 4 4 3 3 2 3 5 7 7 7 7 7 6 6 1 2 4 4 4 3 5 5 4 4 5 5 3 2 1 2 2 2 2 3 4 4 6 6 7 7 7 8 9 9 10 10
5 6 7 16 13 13 16 17 13 12 11 13 16 16 13 12 13 14 13 14 8 7 12 11 9 9 7 7 6 6 6 5 5 5 6 7 8 4 2 1 2 3 3 6 6 3 3 5 7 6 5 5 5 4 5 6 7 3 4 4 3 3 5 8 6 4 3 2 2 3 3 3 3 4 5 6 7 8 8 7 8 8 9 10 10
6 6 11 20 18 17 15 13 12 13 13 11 13 12 10 10 10 10 10 8 8 8 8 7 11 9 7 9 7 5 6 6 7 6 6 4 2 2 5 7 5 6 3 3 4 5 6 7 6 6 6 5 5 4 7 7 5 6 5 4 3 2 3 5 6 5 3 3 2 3 4 3 3 4 5 6 6 8 8 7 7 9 8 9 11
3 3 6 8 15 17 17 14 14 14 12 11 12 12 11 10 9 8 7 7 9 9 8 7 9 10 9 9 8 7 5 5 5 5 4 3 5 7 6 4 4 6 6 4 5 8 7 5 5 5 5 4 5 7 6 6 4 4 4 5 5 6 8 7 6 7 5 5 5 4 5 5 4 3 5 6 6 7 7 7 7 7 8 8 10
5 4 1 3 9 14 13 12 10 13 13 11 10 11 11 11 10 7 8 10 8 10 9 9 8 5 7 9 8 7 7 6 4 3 3 4 3 3 3 4 3 4 7 8 7 4 4 4 5 5 4 5 6 8 4 2 5 4 5 3 0 6 11 12 8 6 6 7 7 7 7 6 4 3 4 5 6 6 6 7 7 7 8 9 10
11 8 6 11 10 12 12 13 12 14 14 13 11 11 11 11 11 10 8 9 8 8 8 10 9 7 6 7 6 5 5 6 6 5 5 4 4 4 5 6 5 5 5 7 6 4 3 5 5 6 7 6 7 4 5 1 2 3 3 5 6 7 11 11 7 7 7 8 8 7 8 7 7 7 10 10 11 10 6 7 8 7 9 9 9
11 10 12 11 11 12 12 13 14 16 15 14 13 13 14 15 13 12 10 8 6 7 6 6 8 6 5 7 6 5 5 5 5 6 5 5 5 6 6 6 6 5 4 4 4 3 4 6 7 6 4 5 5 3 2 9 7 4 4 5 7 7 6 7 7 8 9 9 9 8 9 15 12 12 12 14 15 15 14 9 8 8 10 10 10
7 8 6 6 12 14 15 15 14 16 17 15 14 13 13 14 13 13 11 9 8 8 6 6 8 6 6 7 6 6 6 6 6 5 4 5 6 5 5 5 5 4 4 4 5 7 6 3 5 6 7 2 3 2 4 12 11 14 9 6 4 4 5 6 7 8 9 9 9 9 9 11 7 8 11 16 16 15 14 12 12 13 13 11 11
4 9 10 12 15 17 16 14 15 16 15 13 12 12 11 13 13 11 11 10 9 8 8 8 8 7 8 8 7 7 7 7 6 5 5 5 5 5 5 5 4 4 4 5 5 5 3 2 4 7 2 3 4 5 9 12 11 11 10 6 5 5 5 6 5 7 8 9 10 10 5 9 8 11 14 14 9 9 6 8 11 15 16 17 16
5 3 9 13 14 13 11 11 14 15 14 14 13 13 12 12 11 10 11 10 11 10 10 7 6 6 8 8 8 8 8 8 7 6 6 5 5 5 5 4 5 3 4 5 5 5 5 5 6 3 3 3 2 3 7 9 8 7 9 9 6 7 7 7 7 7 8 9 10 3 5 6 7 10 8 14 12 8 2 7 14 16 15 15 16
8 8 5 7 8 10 15 18 16 15 16 16 15 14 13 12 11 9 9 9 9 10 10 10 9 8 8 8 8 8 7 7 6 7 6 5 4 4 4 4 4 3 5 6 6 5 4 4 4 4 3 2 2 5 6 7 8 9 10 7 6 8 8 7 7 7 8 8 4 2 4 6 9 8 8 10 9 6 4 8 9 10 11 14 15
7 6 7 4 8 9 11 16 16 17 16 15 13 12 12 11 12 8 5 9 10 12 12 10 9 8 8 9 9 8 7 6 6 6 6 5 5 4 4 5 4 4 6 5 5 4 3 4 4 4 3 4 2 7 7 7 8 10 11 6 6 7 8 7 6 8 9 7 6 7 3 6 7 7 6 8 4 4 7 8 10 10 12 13 13
7 6 5 5 7 11 12 14 15 15 15 15 13 14 14 12 6 6 11 11 11 11 9 8 8 9 9 8 9 8 7 6 6 6 6 5 4 3 4 4 3 4 6 6 5 4 6 7 4 3 3 3 3 12 11 10 9 9 8 5 6 7 7 7 6 7 7 5 4 6 8 8 7 7 9 6 3 3 6 10 11 12 13 13 12
3 4 5 4 6 11 14 11 11 13 13 12 14 14 12 10 9 15 11 10 10 10 9 9 8 9 9 9 8 8 8 8 7 6 6 6 6 6 7 6 4 6 9 8 5 5 5 4 3 4 3 3 2 5 8 8 9 9 4 5 6 6 6 7 6 6 6 6 4 7 9 9 6 3 3 5 1 4 6 9 11 11 12 13 14
3 1 4 3 4 7 9 10 13 12 14 14 14 12 11 8 10 8 9 9 9 9 9 9 8 8 8 9 9 8 8 8 7 7 5 4 6 8 7 6 6 7 9 8 6 3 4 1 3 5 4 3 3 7 10 11 10 7 4 5 5 5 6 6 6 6 5 6 7 7 5 6 6 4 2 3 9 7 5 7 9 11 13 14 15
3 3 5 9 7 6 5 6 12 15 14 14 14 12 10 9 8 10 9 8 8 9 8 9 9 8 8 8 8 8 7 7 7 6 5 6 6 5 5 7 8 8 7 5 5 7 2 3 6 7 6 5 4 3 10 11 9 8 5 4 5 5 5 6 5 5 5 6 6 7 11 8 5 4 7 6 7 3 5 7 8 9 12 14 15
3 3 7 7 4 3 13 14 14 13 12 9 8 9 9 9 8 7 7 8 9 9 10 8 8 8 7 7 7 7 7 6 6 5 5 3 3 5 7 7 6 6 7 7 7 3 4 8 8 4 4 5 7 7 4 9 10 8 2 2 3 4 5 6 5 5 6 6 4 3 2 5 3 7 3 3 2 6 5 6 6 8 10 14 15
7 5 5 6 7 11 15 16 15 14 15 11 8 8 6 6 6 6 7 7 9 9 8 7 7 8 7 7 6 6 7 7 4 2 1 2 3 2 3 2 1 3 4 6 5 1 3 4 3 2 2 7 8 6 12 16 6 1 3 1 3 5 6 6 5 5 5 5 3 4 4 8 7 2 4 5 6 8 6 6 6 7 10 17 19
5 7 4 4 9 5 12 14 12 12 12 10 8 6 7 7 6 8 6 5 6 6 6 6 7 7 7 5 3 1 2 2 1 2 3 3 0 3 1 2 3 4 5 6 6 4 4 5 5 6 9 11 7 9 11 15 2 1 1 3 2 5 4 5 6 6 7 4 3 3 3 3 2 5 7 5 7 9 11 7 8 12 17 19 18
8 8 9 13 3 7 1 11 14 13 11 10 11 6 6 5 8 8 6 6 7 8 7 6 6 5 4 6 6 6 3 4 3 3 1 1 1 3 3 3 5 5 6 6 3 3 5 5 4 3 5 7 8 8 13 13 3 0 2 4 7 6 7 4 6 6 6 5 3 3 3 6 10 9 8 7 7 9 9 8 14 14 16 19 16
5 9 9 16 12 11 12 13 14 12 6 3 9 2 1 4 2 5 6 5 4 1 1 3 3 3 3 3 6 4 2 5 4 1 0 0 0 1 1 3 5 6 4 4 2 5 2 1 2 1 5 6 4 4 10 6 4 5 7 7 7 8 7 5 5 6 6 7 5 4 5 9 10 11 10 8 8 7 8 13 13 14 17 15 11
5 10 10 9 16 14 11 7 3 9 7 7 6 5 1 4 5 7 7 5 5 7 3 3 4 2 3 5 4 4 6 5 3 2 1 1 2 2 5 5 5 4 2 2 3 2 2 3 4 1 4 2 4 4 2 3 4 10 11 11 12 11 10 6 5 6 7 4 8 12 11 6 5 9 9 8 4 7 12 12 13 15 14 9 11
3 5 4 7 5 8 8 10 7 10 9 8 8 5 5 3 3 4 2 3 1 1 5 5 4 1 2 5 3 3 5 4 4 3 2 3 5 6 6 4 4 4 3 3 2 2 1 0 1 3 3 3 3 1 1 2 5 7 7 10 12 12 12 11 7 9 11 14 14 11 6 1 4 4 3 3 5 7 10 12 13 13 8 9 9
19 19 19 15 12 10 14 12 11 8 10 8 9 7 4 4 5 4 5 3 2 3 2 2 3 4 3 2 3 4 2 3 4 2 5 7 7 4 2 3 1 2 1 1 1 2 2 1 2 1 1 1 1 2 4 4 5 5 6 7 8 8 10 10 9 5 5 6 8 8 4 5 3 7 5 2 2 6 8 9 7 7 7 8 9
10 11 12 14 17 11 9 7 7 6 10 8 8 4 3 4 5 6 4 6 4 2 2 4 6 4 2 3 5 2 2 2 4 2 3 3 4 3 3 5 5 5 5 4 4 3 3 0 3 3 3 2 1 3 4 5 5 5 5 6 6 7 7 6 7 7 7 9 8 7 3 6 5 4 4 4 4 4 4 6 7 7 7 9 12
10 9 11 13 16 13 5 6 7 9 8 5 5 1 1 4 6 6 5 7 3 3 5 7 4 3 5 5 2 1 3 4 2 8 7 7 6 6 5 7 6 4 4 4 4 4 5 5 4 2 2 2 2 3 1 1 2 0 2 4 6 6 6 7 9 11 8 8 6 3 6 6 6 6 6 6 6 5 4 5 7 7 7 8 9
7 9 11 9 11 11 10 8 6 3 5 4 3 6 6 6 8 5 4 2 3 2 4 5 3 2 5 6 3 4 3 2 2 6 6 7 12 13 10 6 5 7 11 13 10 6 4 4 4 6 5 4 3 2 3 4 5 4 5 8 9 10 9 9 13 18 7 5 4 6 5 5 5 5 6 6 7 7 7 7 7 7 6 8 8
6 8 9 10 10 10 9 6 7 9 8 6 7 7 5 6 4 6 5 3 3 3 3 4 3 4 1 4 5 3 2 3 1 3 7 6 6 8 14 15 11 8 9 10 10 9 10 10 6 6 7 10 8 6 3 1 3 6 8 9 10 11 13 14 16 9 4 4 6 5 6 5 5 5 5 6 6 7 7 7 8 7 6 8 9
Wind_Direction
164 165 170 157 161 182 151 168 175 175 170 165 166 177 165 169 192 175 186 176 150 144 110 79 119 5 53 171 172 199 176 188 209 220 220 234 296 166 208 240 236 234 204 206 240 258 259 246 222 211 217 208 212 232 228 231 233 239 252 248 258 267 264 251 248 255 271 275 269 268 271 260 258 256 250 240 236 236 234 232 222 226 224 219 213
155 138 161 164 159 167 160 173 179 165 172 163 174 165 165 162 202 159 114 147 103 56 38 99 150 180 182 226 173 182 189 170 209 233 225 220 218 202 207 210 235 246 239 235 243 244 245 233 238 241 223 211 209 219 226 230 239 249 255 263 240 251 255 254 262 275 257 262 280 283 274 266 253 249 241 235 235 230 227 224 235 234 232 222 220
150 147 160 157 169 170 175 166 180 163 165 171 140 172 183 175 174 112 132 73 39 119 143 143 194 181 182 194 197 193 195 206 211 190 200 200 209 203 190 198 213 242 247 246 245 252 271 274 252 232 230 229 220 226 234 250 248 250 250 252 268 252 256 251 252 226 264 270 281 295 287 295 268 245 245 239 234 225 209 242 243 250 256 250 247
158 166 168 172 176 168 176 168 159 159 182 160 164 185 173 174 152 145 138 146 148 171 156 168 188 195 209 207 195 206 157 198 220 198 203 185 186 206 199 179 255 281 262 221 218 241 240 253 278 268 251 246 235 233 234 241 245 249 248 253 256 274 266 271 252 241 234 265 281 247 295 302 307 284 274 261 235 191 185 222 221 239 263 323 14
162 173 174 171 177 161 174 164 163 166 172 166 169 173 171 169 168 156 138 157 188 204 176 176 189 183 205 201 205 99 27 177 42 359 5 353 319 210 75 151 267 299 350 345 338 318 314 300 284 280 275 273 274 269 258 250 254 256 256 258 260 268 270 272 276 275 268 230 251 290 287 261 260 301 346 312 246 212 218 215 231 235 229 236 194
164 173 186 163 174 166 166 165 166 166 170 163 173 168 164 171 155 161 151 174 173 156 93 68 78 54 49 56 77 59 68 68 44 14 358 16 14 0 3 10 355 347 333 307 309 315 305 304 306 328 329 306 301 280 270 276 273 269 263 210 248 237 234 256 273 272 256 247 238 235 238 265 283 302 312 296 328 307 246 219 227 231 223 208 216
176 172 182 165 159 172 165 165 171 167 167 165 173 160 162 154 158 159 154 147 127 119 127 104 59 59 77 115 87 124 105 94 103 48 24 28 17 11 336 344 351 349 308 313 293 295 307 316 306 303 292 307 301 303 287 268 272 305 343 284 245 234 212 241 258 277 297 263 252 245 249 257 282 288 271 299 294 291 287 286 228 232 215 283 234
182 172 173 167 163 173 168 165 175 165 169 162 170 157 155 157 155 155 144 127 115 108 68 86 60 105 79 48 86 38 54 61 65 157 127 178 77 290 29 350 336 312 295 278 291 287 292 293 288 283 262 259 285 287 277 254 315 315 220 259 283 282 270 261 267 273 277 285 280 301 297 285 313 275 257 268 282 294 285 280 273 256 180 209 215
179 175 174 168 170 167 162 171 175 165 167 157 160 147 153 152 153 142 126 121 119 112 107 95 124 103 70 65 65 92 50 346 81 15 67 80 310 224 208 194 283 272 275 300 292 311 300 295 303 296 294 302 296 258 265 306 232 245 232 243 235 225 217 243 252 260 268 281 306 298 315 263 241 246 271 279 282 292 291 291 293 287 236 207 210
181 179 177 168 166 166 166 171 175 163 158 151 151 153 149 148 148 130 125 125 131 130 119 120 100 84 134 143 66 124 154 133 60 158 157 128 214 254 175 208 243 296 291 279 309 301 304 323 325 323 333 332 333 314 316 306 238 241 205 205 234 252 236 222 247 269 287 310 328 313 292 299 272 259 238 250 263 240 276 294 299 302 291 276 230
173 182 179 167 169 168 166 172 172 167 149 155 160 153 152 152 135 137 134 134 136 136 140 129 120 140 122 132 142 119 101 95 99 197 155 175 213 154 228 33 286 280 288 272 274 263 298 325 318 326 333 325 318 332 333 336 333 337 338 280 219 237 272 277 258 262 311 311 293 276 282 279 282 280 282 264 254 268 285 283 296 295 291 298 286
175 180 179 172 169 177 173 171 174 169 152 164 165 153 157 148 141 143 146 139 146 138 147 143 157 126 94 135 149 107 53 83 213 23 125 42 345 344 39 231 241 239 242 274 257 315 15 346 335 326 328 336 334 336 328 331 329 331 325 312 293 268 257 272 291 308 287 275 274 285 276 271 279 267 283 286 277 270 261 286 287 294 291 277 290
184 178 178 175 176 180 178 172 171 166 160 168 169 167 149 142 150 150 153 148 149 141 159 152 163 143 144 144 107 101 330 139 189 354 106 58 48 337 298 292 297 275 281 307 7 344 9 337 318 311 317 313 314 307 312 312 318 311 312 312 316 318 294 263 287 296 320 300 297 302 312 322 290 285 289 303 309 297 265 277 261 257 273 284 280
186 181 182 176 178 182 179 171 171 164 166 169 170 156 146 151 156 153 154 151 148 153 163 156 160 151 134 118 106 68 188 67 30 268 54 70 89 214 286 320 309 278 320 354 344 335 302 301 304 304 293 296 302 303 295 299 298 285 290 300 303 313 316 333 307 319 267 242 246 268 285 281 305 321 328 339 346 326 305 294 300 289 276 283 285
177 181 180 176 178 180 178 168 165 164 169 170 168 149 148 155 157 156 151 158 151 165 164 163 160 152 147 119 95 143 95 203 84 80 40 326 89 347 304 273 314 320 313 332 300 285 297 312 308 306 307 300 295 293 282 285 291 294 293 291 299 301 323 328 312 320 311 305 299 306 308 316 313 317 328 308 237 266 270 279 287 300 291 276 278
180 181 179 176 180 165 159 152 98 38 276 188 161 149 153 155 159 157 157 156 158 170 162 180 157 155 157 154 153 151 122 117 150 112 173 196 204 157 327 292 261 265 285 280 281 286 315 308 305 300 309 303 300 297 299 292 289 292 281 282 294 317 325 310 309 290 309 314 316 323 344 339 315 304 283 273 260 246 250 263 258 267 286 292 286
186 183 181 172 173 168 150 139 142 181 212 211 162 157 155 156 158 158 157 156 165 167 171 179 160 158 157 156 153 159 158 180 197 193 172 144 144 221 224 275 311 286 268 254 263 311 310 291 282 287 282 284 288 295 289 281 286 290 289 288 275 306 300 298 299 302 302 313 337 355 357 307 297 315 308 298 269 259 266 263 231 253 256 277 289
189 175 172 166 167 154 155 165 166 191 203 197 158 158 157 157 159 158 158 161 168 169 176 171 166 160 158 160 159 167 168 186 181 154 153 173 212 203 221 216 228 292 325 317 296 283 281 296 293 284 287 278 268 267 263 272 274 271 282 278 284 283 274 284 295 303 315 350 13 336 325 312 313 315 315 315 327 323 311 311 297 274 258 259 269
182 162 181 176 170 169 173 176 180 186 199 191 157 153 150 153 162 160 164 164 168 170 174 168 163 157 163 157 161 159 169 188 170 169 155 211 264 300 242 243 254 236 247 261 286 292 291 285 282 279 273 273 265 259 262 260 264 268 268 273 280 292 267 250 247 292 331 29 328 294 290 304 314 318 321 332 330 328 325 317 309 302 292 270 271
203 180 187 179 171 181 177 184 183 183 187 174 158 159 161 160 160 162 162 166 168 170 166 160 162 170 149 142 144 145 156 167 180 167 177 208 217 246 303 276 251 266 250 260 282 285 285 295 295 291 287 279 281 286 277 270 271 268 254 273 255 239 267 283 294 280 337 320 274 292 314 312 330 330 335 333 329 328 325 324 324 316 304 291 280
194 166 163 167 167 168 167 189 184 169 167 163 166 168 166 165 169 170 167 174 171 172 162 166 161 162 157 146 154 152 171 174 185 184 204 219 227 225 283 311 279 257 279 282 263 258 258 253 256 267 280 284 293 289 284 288 274 261 252 243 252 263 288 273 257 276 218 248 288 322 319 332 346 342 334 328 325 323 324 323 320 316 311 308 304
196 181 166 172 148 141 176 213 195 172 170 186 168 172 169 174 173 176 178 180 179 173 165 159 167 160 165 165 166 163 174 179 195 189 197 219 220 233 211 219 241 242 238 245 256 265 266 262 264 279 282 292 294 298 300 285 274 271 271 269 267 265 263 270 261 259 253 262 315 319 328 336 349 340 329 323 320 315 317 314 315 318 314 314 315
219 192 184 151 141 181 188 195 185 168 165 165 161 175 183 184 177 181 177 184 182 174 162 155 161 168 168 163 162 169 176 184 199 193 223 221 220 219 218 229 234 263 236 242 249 262 293 296 281 269 267 264 260 265 291 313 305 294 276 264 269 280 275 266 269 277 288 333 294 313 312 327 336 322 316 310 308 306 303 303 311 312 313 312 310
207 255 169 148 145 143 137 168 176 171 171 175 178 186 190 183 180 182 182 181 186 168 165 160 163 169 173 162 162 178 191 203 198 196 216 240 269 270 241 220 217 225 258 269 268 260 247 248 258 265 265 267 265 197 245 264 278 289 300 298 292 290 278 265 272 273 271 267 294 284 277 295 303 293 300 304 306 305 303 308 307 311 312 313 315
201 226 119 134 140 168 167 173 181 177 184 188 182 187 180 167 176 183 183 178 179 144 158 164 171 181 176 168 169 179 191 204 230 237 232 237 231 264 66 264 260 265 268 258 247 241 277 278 267 261 265 272 275 210 245 243 250 235 248 257 270 284 285 284 277 268 254 253 259 270 281 281 282 291 296 310 315 308 306 307 305 311 314 317 317
189 207 145 163 166 178 180 182 184 187 189 182 175 168 159 143 160 171 186 175 145 136 137 171 181 182 179 167 169 186 200 204 205 212 225 241 304 337 265 259 236 237 229 255 263 249 244 248 258 266 262 255 267 221 220 241 245 259 256 262 259 248 260 260 259 262 259 255 244 260 269 267 277 290 294 300 307 304 302 300 308 311 313 318 317
305 229 201 150 154 168 178 173 182 187 180 172 162 157 144 140 157 178 175 144 146 144 162 179 204 187 180 170 170 177 196 215 202 201 219 240 237 251 273 319 330 282 275 282 274 260 246 251 262 270 278 298 293 290 272 235 267 340 354 334 333 316 286 267 271 276 273 272 254 248 249 244 248 264 279 282 288 293 290 293 302 301 311 308 316
218 265 92 113 140 178 178 178 166 173 163 157 151 149 141 146 157 179 170 148 158 157 169 185 194 195 163 167 170 176 185 198 211 208 203 204 223 243 254 248 259 284 278 270 275 288 309 302 299 291 299 286 276 271 245 58 82 261 251 260 262 284 288 280 270 268 268 268 260 245 249 254 242 239 250 255 264 271 278 290 296 292 296 307 312
197 190 162 169 191 172 183 181 173 162 162 157 152 147 146 153 158 191 177 163 166 166 170 186 182 176 163 154 159 168 178 182 193 198 201 209 217 220 220 229 226 235 253 264 272 292 299 290 283 280 271 262 274 356 58 9 248 265 237 253 269 255 249 256 252 252 256 261 260 249 251 249 242 242 235 245 248 251 267 276 287 292 298 305 305
195 188 183 172 166 180 191 186 177 168 165 163 161 162 163 168 171 178 164 167 165 175 180 163 155 169 151 148 149 166 181 186 194 197 200 202 214 215 226 228 230 232 244 258 265 251 273 267 261 261 271 283 30 65 252 214 234 248 251 229 231 241 268 287 279 268 263 261 260 253 241 250 238 227 239 245 248 249 245 241 263 286 296 297 298
177 150 151 147 160 191 196 189 178 171 168 167 168 168 167 167 170 168 168 170 170 175 163 158 156 175 170 147 158 177 192 194 190 199 208 219 217 220 225 232 237 219 235 252 249 248 248 277 299 297 280 17 114 207 279 287 265 245 237 238 257 262 266 279 287 288 281 273 263 254 245 241 248 272 245 240 247 247 248 249 257 263 268 275 295
202 182 179 188 190 183 186 177 171 167 167 162 158 162 161 168 180 172 169 166 167 165 161 171 184 173 156 160 171 184 190 193 195 193 209 216 228 231 231 240 233 224 227 230 248 246 241 249 264 266 288 152 213 202 206 225 228 247 259 254 255 268 268 267 278 286 287 286 287 279 328 13 335 292 317 295 273 269 252 247 262 278 282 278 270
310 276 204 192 176 172 162 167 167 168 163 167 163 174 181 183 183 174 174 167 169 154 159 176 193 171 154 169 180 190 189 192 189 195 202 217 224 233 244 250 252 225 219 233 232 231 232 225 234 233 207 228 183 236 265 277 284 283 260 249 261 270 275 278 277 285 287 284 282 24 35 282 276 275 278 277 285 297 236 292 291 288 285 283 295
282 277 259 196 183 173 173 176 174 174 174 175 179 177 188 192 180 164 167 169 172 164 163 183 188 167 165 172 190 190 194 194 189 191 194 218 227 239 241 242 250 233 230 239 236 235 238 241 248 217 251 242 195 212 241 277 298 294 276 262 274 282 283 279 277 290 293 296 313 129 226 250 261 255 240 260 281 296 305 297 297 302 300 302 305
273 278 268 232 183 176 170 171 173 175 177 179 180 180 172 174 166 166 153 203 183 161 171 175 163 170 169 183 184 189 195 196 193 187 200 206 220 214 239 245 238 248 251 232 230 231 239 258 230 198 229 243 238 170 216 249 261 260 263 268 270 272 274 274 280 284 282 275 287 290 258 248 247 230 226 262 280 309 313 307 301 296 299 302 302
232 248 253 231 187 182 182 183 182 179 172 176 173 162 163 161 151 95 221 196 166 158 154 151 172 172 180 180 184 184 195 198 193 194 198 208 185 151 231 251 262 279 271 258 242 229 232 242 218 207 250 234 162 175 199 197 225 246 264 252 243 248 261 270 276 278 282 284 276 278 277 273 267 263 274 263 217 313 314 317 303 299 303 301 300
205 228 255 233 204 189 190 177 164 164 166 163 146 146 150 147 150 211 190 152 149 149 154 174 176 180 180 182 185 186 195 197 197 198 205 214 210 207 224 221 235 255 260 250 237 229 242 268 257 233 177 214 234 202 207 208 222 232 232 245 245 254 267 274 273 276 297 306 280 212 238 255 265 293 126 166 39 37 331 309 299 296 298 303 309
342 49 294 265 199 190 176 167 154 146 140 146 147 141 157 182 201 175 162 148 154 158 170 175 179 184 182 184 187 190 192 195 194 202 211 213 199 211 204 164 194 236 246 242 242 252 272 254 335 295 238 187 229 219 188 208 228 241 219 259 256 247 247 263 280 286 287 290 314 302 228 269 294 307 133 11 34 19 317 298 292 299 304 309 317
134 261 240 237 226 208 182 120 137 144 145 144 145 151 166 193 189 170 161 161 161 172 175 182 185 186 186 184 189 191 194 192 196 203 209 230 212 204 183 202 213 222 240 258 266 270 306 6 288 276 277 230 259 137 193 228 229 239 227 252 255 250 259 265 267 262 259 288 294 284 271 275 289 351 58 18 42 348 280 279 288 297 305 317 322
58 35 321 300 250 114 112 128 143 135 132 124 143 162 182 187 172 159 163 175 177 176 181 182 188 188 187 189 192 188 190 195 199 207 225 215 208 201 204 207 214 227 244 247 249 232 178 202 231 261 294 327 355 348 290 236 239 237 303 306 267 254 268 276 274 275 283 281 282 318 245 185 101 67 8 316 306 245 253 276 290 295 310 319 319
239 206 205 215 204 154 156 148 149 149 131 136 178 183 192 177 162 168 185 187 174 174 176 176 180 190 192 194 182 172 189 194 187 197 228 238 232 254 59 76 226 245 248 268 291 162 222 273 278 287 13 37 30 318 302 293 277 341 20 11 307 285 278 277 271 267 261 266 314 327 349 95 112 185 278 295 269 276 265 272 277 302 315 307 311
116 83 28 359 351 153 138 128 135 138 134 158 179 185 165 173 174 189 188 148 153 161 170 181 191 196 195 167 112 40 229 139 47 231 216 246 294 89 127 60 338 298 294 296 298 292 6 337 319 357 35 47 37 348 299 314 317 9 277 226 287 305 338 319 303 290 284 309 319 304 342 148 5 358 345 320 294 287 295 297 304 315 312 315 323
99 80 87 84 357 337 68 134 149 150 176 170 158 137 123 149 193 193 176 166 167 166 177 190 203 191 150 155 162 184 183 94 274 239 162 84 74 7 19 308 281 272 269 283 316 17 30 40 36 28 43 49 33 6 309 285 286 132 277 247 245 267 310 298 291 296 306 302 298 327 319 360 357 345 327 311 295 296 293 316 326 325 317 318 321
147 139 149 158 177 189 180 165 179 165 154 103 128 101 338 116 51 8 14 11 7 342 128 202 174 219 202 106 112 130 159 155 177 151 120 102 25 134 237 259 248 257 263 289 11 101 149 235 300 116 124 133 185 219 255 273 310 359 334 321 307 283 273 280 302 295 291 291 318 348 323 348 352 338 319 303 290 300 329 329 341 343 325 320 329
169 192 174 184 173 190 167 172 80 78 83 83 75 104 139 55 65 35 19 13 352 322 309 336 313 258 137 135 94 94 128 142 137 156 86 4 258 219 259 257 263 268 288 56 96 125 145 200 222 193 107 164 215 231 278 281 328 7 355 356 342 321 289 242 252 266 261 290 330 310 312 6 337 329 316 298 301 356 350 347 360 350 336 337 336
360 332 203 186 179 135 111 77 90 113 110 103 111 112 106 158 84 74 69 302 35 307 305 294 270 326 98 111 142 201 145 139 142 120 154 207 256 265 256 263 281 292 119 154 192 208 218 144 147 104 149 188 236 222 228 33 27 2 350 337 322 314 325 329 285 259 283 296 288 286 296 62 332 315 329 18 28 2 347 354 5 360 345 340 337
31 26 30 19 10 34 88 110 105 116 112 99 77 65 70 100 104 152 226 207 183 240 259 331 302 272 257 218 170 162 144 97 77 188 219 223 223 217 307 313 35 349 196 192 306 330 350 349 109 104 102 124 272 301 46 31 22 7 351 343 334 344 353 352 343 354 339 315 312 315 336 329 277 283 291 240 42 7 357 4 3 357 348 347 341
73 70 82 79 71 53 42 40 57 80 95 102 105 118 164 146 175 225 169 173 194 177 258 265 251 228 84 85 91 124 183 189 213 262 327 355 30 354 348 49 32 11 357 354 348 4 342 330 182 161 176 157 148 75 42 6 12 358 350 340 339 342 351 345 332 329 327 311 302 298 324 39 31 37 14 14 18 11 1 355 2 355 1 345 349
86 89 101 112 115 108 66 55 44 33 24 60 66 18 116 135 213 207 151 152 173 213 224 246 235 133 97 90 95 197 239 226 246 71 56 30 8 355 40 73 45 15 21 17 354 9 12 343 339 68 272 203 147 93 37 329 325 283 302 331 333 343 339 329 303 307 308 296 288 305 52 20 13 7 11 6 353 351 1 355 352 356 355 354 354
93 111 109 100 99 105 125 131 129 127 101 61 49 58 78 94 81 81 77 160 152 203 224 238 216 183 207 161 176 235 240 240 166 108 105 88 61 46 31 76 84 50 53 56 63 60 31 347 59 61 22 49 61 67 142 216 270 276 260 251 264 280 286 286 293 295 276 261 331 17 18 22 350 11 9 6 350 352 354 354 351 347 353 357 354
74 81 84 113 116 122 114 108 110 114 130 123 113 109 86 75 63 92 131 146 141 204 207 222 221 226 44 124 196 226 48 105 225 170 128 118 109 52 46 51 66 69 64 69 81 77 54 40 42 109 80 88 112 127 139 217 256 269 280 280 286 294 302 307 315 323 320 18 12 26 15 11 4 4 17 5 1 0 357 351 346 341 348 353 351